| time (UTC) | temp F | wind direction | speed MPH | gust MPH | rain 1hr in | rain 24hr in | rain mn in | humidity % | barometer mb |
| 20260503024551 | 46 | 144 | 1.0 | 5.0 | 0.00 | 0.00 | 0.00 | 64 | 1008.1 |
| 20260503023047 | 45 | 180 | 0.0 | 4.0 | 0.00 | 0.00 | 0.00 | 60 | 1008.3 |
| 20260503021547 | 46 | 0 | 0.0 | 1.0 | 0.00 | 0.00 | 0.00 | 58 | 1008.6 |
| 20260503020046 | 47 | 0 | 0.0 | 0.0 | 0.00 | 0.00 | 0.00 | 58 | 1008.5 |
| 20260503014553 | 49 | 0 | 0.0 | 0.0 | 0.00 | 0.00 | 0.00 | 58 | 1008.6 |
| 20260503013048 | 50 | 0 | 0.0 | 4.0 | 0.00 | 0.00 | 0.00 | 56 | 1008.5 |
| 20260503011545 | 52 | 218 | 2.0 | 4.0 | 0.00 | 0.00 | 0.00 | 57 | 1008.7 |
| 20260503010042 | 52 | 264 | 4.0 | 9.0 | 0.00 | 0.00 | 0.00 | 54 | 1008.8 |
| 20260503004547 | 53 | 250 | 5.0 | 10.0 | 0.00 | 0.00 | 0.00 | 49 | 1008.8 |
| 20260503003050 | 53 | 256 | 6.0 | 12.0 | 0.00 | 0.00 | 0.00 | 52 | 1008.9 |
| 20260503001600 | 54 | 265 | 7.0 | 14.0 | 0.00 | 0.00 | 0.00 | 47 | 1008.9 |
| 20260503000106 | 54 | 261 | 5.0 | 11.0 | 0.00 | 0.00 | 0.00 | 47 | 1008.9 |
| 20260502234559 | 54 | 198 | 6.0 | 11.0 | 0.00 | 0.00 | 0.00 | 48 | 1008.9 |
| 20260502233047 | 55 | 237 | 4.0 | 10.0 | 0.00 | 0.00 | 0.00 | 46 | 1009.0 |
| 20260502231545 | 55 | 224 | 7.0 | 11.0 | 0.00 | 0.00 | 0.00 | 44 | 1008.9 |
| 20260502230045 | 55 | 0 | 0.0 | 6.0 | 0.00 | 0.00 | 0.00 | 38 | 1009.1 |
| 20260502224543 | 55 | 269 | 3.0 | 12.0 | 0.00 | 0.00 | 0.00 | 46 | 1009.3 |
| 20260502223047 | 56 | 319 | 6.0 | 11.0 | 0.00 | 0.00 | 0.00 | 38 | 1009.5 |
| 20260502221547 | 56 | 302 | 6.0 | 13.0 | 0.00 | 0.00 | 0.00 | 39 | 1009.5 |
| 20260502220050 | 56 | 269 | 8.0 | 14.0 | 0.00 | 0.00 | 0.00 | 42 | 1009.6 |
| 20260502214606 | 57 | 296 | 8.0 | 15.0 | 0.00 | 0.00 | 0.00 | 39 | 1009.7 |
| 20260502213103 | 58 | 215 | 5.0 | 12.0 | 0.00 | 0.00 | 0.00 | 32 | 1009.9 |
| 20260502211540 | 58 | 306 | 4.0 | 7.0 | 0.00 | 0.00 | 0.00 | 29 | 1010.0 |
| 20260502210048 | 57 | 0 | 1.0 | 11.0 | 0.00 | 0.00 | 0.00 | 30 | 1010.1 |
| 20260502204546 | 57 | 315 | 5.0 | 9.0 | 0.00 | 0.00 | 0.00 | 34 | 1010.2 |
| 20260502203108 | 56 | 281 | 5.0 | 10.0 | 0.00 | 0.00 | 0.00 | 37 | 1010.6 |
| 20260502201544 | 56 | 0 | 2.0 | 11.0 | 0.00 | 0.00 | 0.00 | 29 | 1010.7 |
| 20260502200047 | 56 | 278 | 6.0 | 17.0 | 0.00 | 0.00 | 0.00 | 37 | 1011.2 |
| 20260502194548 | 56 | 268 | 1.0 | 15.0 | 0.00 | 0.00 | 0.00 | 34 | 1011.4 |
| 20260502193048 | 56 | 247 | 6.0 | 11.0 | 0.00 | 0.00 | 0.00 | 42 | 1011.7 |
| 20260502191548 | 56 | 326 | 5.0 | 11.0 | 0.00 | 0.00 | 0.00 | 35 | 1011.9 |
| 20260502190045 | 56 | 286 | 7.0 | 11.0 | 0.00 | 0.00 | 0.00 | 40 | 1012.3 |
| 20260502184543 | 55 | 302 | 8.0 | 18.0 | 0.00 | 0.00 | 0.00 | 41 | 1012.5 |
| 20260502183048 | 54 | 227 | 9.0 | 14.0 | 0.00 | 0.00 | 0.00 | 43 | 1012.8 |
| 20260502181547 | 54 | 190 | 1.0 | 5.0 | 0.00 | 0.00 | 0.00 | 33 | 1012.9 |
| 20260502163059 | 51 | 0 | 3.0 | 9.0 | 0.00 | 0.00 | 0.00 | 37 | 1014.2 |
| 20260502161554 | 50 | 272 | 4.0 | 12.0 | 0.00 | 0.00 | 0.00 | 42 | 1014.3 |
| 20260502151544 | 47 | 226 | 5.0 | 9.0 | 0.00 | 0.00 | 0.00 | 48 | 1014.9 |
| 20260502123109 | 26 | 0 | 0.0 | 0.0 | 0.00 | 0.00 | 0.00 | 93 | 1015.8 |
| 20260502121557 | 25 | 0 | 0.0 | 0.0 | 0.00 | 0.00 | 0.00 | 92 | 1015.8 |
| 20260502114547 | 24 | 0 | 0.0 | 0.0 | 0.00 | 0.00 | 0.00 | 92 | 1015.8 |
| 20260502113050 | 23 | 0 | 0.0 | 0.0 | 0.00 | 0.00 | 0.00 | 91 | 1015.9 |
| 20260502111547 | 23 | 0 | 0.0 | 0.0 | 0.00 | 0.00 | 0.00 | 91 | 1015.8 |
| 20260502110046 | 23 | 0 | 0.0 | 0.0 | 0.00 | 0.00 | 0.00 | 91 | 1015.7 |
| 20260502104548 | 23 | 0 | 0.0 | 0.0 | 0.00 | 0.00 | 0.00 | 91 | 1015.8 |
| 20260502103047 | 23 | 0 | 0.0 | 0.0 | 0.00 | 0.00 | 0.00 | 91 | 1015.8 |
| 20260502101547 | 23 | 0 | 0.0 | 0.0 | 0.00 | 0.00 | 0.00 | 91 | 1015.9 |
| 20260502070101 | 26 | 0 | 0.0 | 0.0 | 0.00 | 0.00 | 0.00 | 87 | 1016.1 |
| 20260502064553 | 26 | 0 | 0.0 | 0.0 | 0.00 | 0.00 | 0.00 | 87 | 1016.2 |
| 20260502063050 | 26 | 0 | 0.0 | 0.0 | 0.00 | 0.00 | 0.00 | 86 | 1016.3 |
| 20260502061542 | 26 | 0 | 0.0 | 0.0 | 0.00 | 0.00 | 0.00 | 86 | 1016.4 |
| 20260502060052 | 27 | 0 | 0.0 | 0.0 | 0.00 | 0.00 | 0.00 | 85 | 1016.3 |
| 20260502054545 | 27 | 0 | 0.0 | 0.0 | 0.00 | 0.00 | 0.00 | 85 | 1016.3 |
| 20260502053045 | 27 | 0 | 0.0 | 0.0 | 0.00 | 0.00 | 0.00 | 84 | 1016.3 |
| 20260502051559 | 27 | 0 | 0.0 | 0.0 | 0.00 | 0.00 | 0.00 | 84 | 1016.4 |
| 20260502050048 | 27 | 0 | 0.0 | 0.0 | 0.00 | 0.00 | 0.00 | 83 | 1016.4 |
| 20260502044546 | 28 | 0 | 0.0 | 0.0 | 0.00 | 0.00 | 0.00 | 83 | 1016.4 |
| 20260502043046 | 28 | 0 | 0.0 | 0.0 | 0.00 | 0.00 | 0.00 | 81 | 1016.4 |
| 20260502041542 | 28 | 0 | 0.0 | 0.0 | 0.00 | 0.00 | 0.00 | 79 | 1016.4 |
| 20260502040042 | 28 | 0 | 0.0 | 0.0 | 0.00 | 0.00 | 0.00 | 78 | 1016.5 |
| 20260502034546 | 29 | 0 | 0.0 | 0.0 | 0.00 | 0.00 | 0.00 | 78 | 1016.5 |
| 20260502033048 | 29 | 0 | 0.0 | 0.0 | 0.00 | 0.00 | 0.00 | 77 | 1016.6 |
| 20260502031544 | 29 | 0 | 0.0 | 0.0 | 0.00 | 0.00 | 0.00 | 75 | 1016.6 |
| 20260502030045 | 30 | 0 | 0.0 | 0.0 | 0.00 | 0.00 | 0.00 | 73 | 1016.7 |